KB6CYS Weather Reports


Display with metric or nautical units.
time (UTC)temp
F
wind
direction
speed
MPH
gust
MPH
rain 1hr
in
rain 24hr
in
rain mn
in
humidity
%
barometer
mb
20260905230524 89 210 5.0 10.0 0.00 0.00 0.00 1010.5
20260905230003 89 204 5.0 8.0 0.00 0.00 0.00 1010.9
20260905225502 88 210 5.0 8.0 0.00 0.00 0.00 1010.9
20260905225002 88 187 4.0 9.0 0.00 0.00 0.00 1010.5
20260905224501 88 175 5.0 10.0 0.00 0.00 0.00 1010.9
20260905224002 88 220 6.0 11.0 0.00 0.00 0.00 1010.5
20260905223501 89 233 6.0 11.0 0.00 0.00 0.00 1010.5
20260905223002 89 230 5.0 10.0 0.00 0.00 0.00 1011.2
20260905222502 89 222 6.0 10.0 0.00 0.00 0.00 1011.5
20260905222003 89 217 6.0 10.0 0.00 0.00 0.00 1011.2
20260905221502 89 205 4.0 10.0 0.00 0.00 0.00 1010.9
20260905221002 88 220 5.0 12.0 0.00 0.00 0.00 1011.2
20260905220524 89 223 7.0 12.0 0.00 0.00 0.00 1011.5
20260905220003 89 208 5.0 12.0 0.00 0.00 0.00 1011.5
20260905215503 88 207 5.0 12.0 0.00 0.00 0.00 1011.5
20260905215002 87 219 7.0 11.0 0.00 0.00 0.00 1012.2
20260905214503 87 237 6.0 11.0 0.00 0.00 0.00 1011.2
20260905214004 88 231 4.0 10.0 0.00 0.00 0.00 1012.2
20260905213502 88 220 5.0 10.0 0.00 0.00 0.00 1011.9
20260905213002 89 208 3.0 10.0 0.00 0.00 0.00 1012.2
20260905212525 89 221 5.0 10.0 0.00 0.00 0.00 1011.5
20260905212001 88 208 4.0 10.0 0.00 0.00 0.00 1011.9
20260905211502 87 214 6.0 13.0 0.00 0.00 0.00 1011.2
20260905211003 87 260 6.0 13.0 0.00 0.00 0.00 1011.9
20260905210502 88 199 4.0 12.0 0.00 0.00 0.00 1011.9
20260905210002 87 202 6.0 12.0 0.00 0.00 0.00 1011.5
20260905205504 87 200 5.0 11.0 0.00 0.00 0.00 1012.6
20260905205023 87 199 5.0 11.0 0.00 0.00 0.00 1011.9
20260905204524 86 188 3.0 10.0 0.00 0.00 0.00 1011.9
20260905204003 86 234 5.0 10.0 0.00 0.00 0.00 1012.2
20260905203502 86 184 5.0 10.0 0.00 0.00 0.00 1011.9
20260905203003 85 238 5.0 10.0 0.00 0.00 0.00 1011.9
20260905202503 85 253 4.0 12.0 0.00 0.00 0.00 1012.2
20260905202003 85 234 7.0 12.0 0.00 0.00 0.00 1012.6
20260905201502 85 186 4.0 10.0 0.00 0.00 0.00 1012.9
20260905201002 85 175 5.0 11.0 0.00 0.00 0.00 1012.9
20260905200502 85 230 6.0 11.0 0.00 0.00 0.00 1012.6
20260905200002 84 239 6.0 10.0 0.00 0.00 0.00 1011.9
20260905195524 85 201 3.0 10.0 0.00 0.00 0.00 1012.2
20260905195002 85 187 4.0 11.0 0.00 0.00 0.00 1012.2
20260905194523 85 212 6.0 11.0 0.00 0.00 0.00 1012.2
20260905194003 85 193 4.0 12.0 0.00 0.00 0.00 1012.6
20260905193502 85 214 5.0 12.0 0.00 0.00 0.00 1012.2
20260905193025 85 191 6.0 9.0 0.00 0.00 0.00 1013.2
20260905192503 84 230 5.0 9.0 0.00 0.00 0.00 1012.9
20260905192002 83 244 3.0 10.0 0.00 0.00 0.00 1012.2
20260905191502 83 174 4.0 10.0 0.00 0.00 0.00 1012.9
20260905191002 83 196 3.0 10.0 0.00 0.00 0.00 1012.6
20260905190524 82 264 5.0 10.0 0.00 0.00 0.00 1012.9
20260905190003 83 346 1.0 5.0 0.00 0.00 0.00 1013.2
20260905185503 82 120 2.0 9.0 0.00 0.00 0.00 1012.9
20260905185003 82 227 5.0 9.0 0.00 0.00 0.00 1013.2
20260905184524 82 181 4.0 6.0 0.00 0.00 0.00 1013.2
20260905184002 82 199 3.0 5.0 0.00 0.00 0.00 1013.2
20260905183503 81 210 2.0 5.0 0.00 0.00 0.00 1013.2
20260905183003 80 337 1.0 6.0 0.00 0.00 0.00 1013.2
20260905182502 81 344 2.0 6.0 0.00 0.00 0.00 1013.6
20260905182023 81 52 3.0 5.0 0.00 0.00 0.00 1013.9
20260905181503 80 44 2.0 6.0 0.00 0.00 0.00 1013.6
20260905181024 80 120 3.0 6.0 0.00 0.00 0.00 1013.6
20260905180502 79 205 2.0 4.0 0.00 0.00 0.00 1013.6
20260905180004 78 231 1.0 4.0 0.00 0.00 0.00 1013.9
20260905175503 78 198 2.0 4.0 0.00 0.00 0.00 1013.6
20260905175023 78 220 3.0 5.0 0.00 0.00 0.00 1014.3
20260905174502 77 165 4.0 5.0 0.00 0.00 0.00 1013.6
20260905174024 77 230 2.0 3.0 0.00 0.00 0.00 1013.9
20260905173503 77 111 1.0 4.0 0.00 0.00 0.00 1013.9
20260905173002 76 100 3.0 5.0 0.00 0.00 0.00 1013.6
20260905172503 76 97 3.0 5.0 0.00 0.00 0.00 1013.6
20260905172002 75 114 2.0 4.0 0.00 0.00 0.00 1013.6
20260905171502 74 109 3.0 4.0 0.00 0.00 0.00 1013.9
20260905171002 74 235 2.0 3.0 0.00 0.00 0.00 1013.9
20260905170503 74 69 1.0 3.0 0.00 0.00 0.00 1013.9
20260905170002 74 14 2.0 5.0 0.00 0.00 0.00 1013.6
20260905165525 73 180 3.0 5.0 0.00 0.00 0.00 1013.6
20260905165004 73 161 1.0 4.0 0.00 0.00 0.00 1013.6
20260905164502 72 166 2.0 4.0 0.00 0.00 0.00 1013.6
20260905164002 72 282 1.0 3.0 0.00 0.00 0.00 1013.6
20260905163503 71 341 1.0 5.0 0.00 0.00 0.00 1013.6
20260905163002 71 284 2.0 5.0 0.00 0.00 0.00 1013.6
20260905162503 70 234 3.0 5.0 0.00 0.00 0.00 1013.2
20260905162003 70 283 3.0 5.0 0.00 0.00 0.00 1013.2
20260905161504 69 317 3.0 5.0 0.00 0.00 0.00 1013.9
20260905161003 69 335 2.0 5.0 0.00 0.00 0.00 1013.6
20260905160503 69 235 2.0 5.0 0.00 0.00 0.00 1013.2
20260905160002 69 284 2.0 5.0 0.00 0.00 0.00 1013.6
20260905155503 68 270 3.0 5.0 0.00 0.00 0.00 1013.2
20260905155002 68 285 1.0 4.0 0.00 0.00 0.00 1013.2
20260905154524 68 247 2.0 4.0 0.00 0.00 0.00 1012.6
20260905154002 68 13 2.0 3.0 0.00 0.00 0.00 1012.9
20260905153502 67 287 2.0 3.0 0.00 0.00 0.00 1012.9
20260905153002 67 254 2.0 3.0 0.00 0.00 0.00 1012.6
20260905152502 67 309 1.0 3.0 0.00 0.00 0.00 1012.9
20260905152002 66 4 1.0 3.0 0.00 0.00 0.00 1012.9
20260905151503 66 55 1.0 3.0 0.00 0.00 0.00 1012.6
20260905151023 66 324 1.0 3.0 0.00 0.00 0.00 1012.6
20260905150503 65 296 1.0 2.0 0.00 0.00 0.00 1012.9
20260905150003 65 90 1.0 2.0 0.00 0.00 0.00 1012.9
20260905145503 65 90 1.0 2.0 0.00 0.00 0.00 1013.2
20260905145024 64 90 1.0 2.0 0.00 0.00 0.00 1012.6
20260905144524 64 90 1.0 3.0 0.00 0.00 0.00 1012.6
20260905144024 64 65 2.0 3.0 0.00 0.00 0.00 1012.6
20260905143502 63 45 2.0 3.0 0.00 0.00 0.00 1012.6
20260905143003 63 25 1.0 2.0 0.00 0.00 0.00 1012.6
20260905142502 63 359 1.0 3.0 0.00 0.00 0.00 1012.2
20260905142002 63 30 1.0 3.0 0.00 0.00 0.00 1012.6
20260905141502 63 38 2.0 3.0 0.00 0.00 0.00 1012.2
20260905141003 62 58 2.0 3.0 0.00 0.00 0.00 1012.2
20260905140503 62 31 2.0 3.0 0.00 0.00 0.00 1012.6
20260905140002 62 10 2.0 3.0 0.00 0.00 0.00 1012.9
20260905135525 62 16 1.0 3.0 0.00 0.00 0.00 1012.6
20260905135002 62 29 2.0 3.0 0.00 0.00 0.00 1012.2
20260905134502 62 13 1.0 2.0 0.00 0.00 0.00 1012.2
20260905134002 62 52 1.0 2.0 0.00 0.00 0.00 1011.9
20260905133503 62 4 1.0 2.0 0.00 0.00 0.00 1012.2
20260905133002 62 342 1.0 2.0 0.00 0.00 0.00 1012.2
20260905132502 63 5 2.0 3.0 0.00 0.00 0.00 1012.2
20260905132003 63 34 1.0 3.0 0.00 0.00 0.00 1012.2
20260905131502 63 50 2.0 3.0 0.00 0.00 0.00 1012.2
20260905131024 63 67 2.0 3.0 0.00 0.00 0.00 1012.2
20260905130501 63 72 1.0 5.0 0.00 0.00 0.00 1012.6
20260905130023 63 61 2.0 5.0 0.00 0.00 0.00 1011.9
20260905125502 63 63 1.0 3.0 0.00 0.00 0.00 1011.9
20260905125003 63 71 2.0 3.0 0.00 0.00 0.00 1012.2
20260905124502 63 41 1.0 3.0 0.00 0.00 0.00 1012.2
20260905124003 63 45 2.0 3.0 0.00 0.00 0.00 1012.2
20260905123502 63 44 1.0 3.0 0.00 0.00 0.00 1011.9
20260905123024 63 37 1.0 2.0 0.00 0.00 0.00 1012.6
20260905122502 64 20 1.0 3.0 0.00 0.00 0.00 1012.6
20260905122002 64 50 1.0 3.0 0.00 0.00 0.00 1012.2
20260905121502 64 46 1.0 3.0 0.00 0.00 0.00 1012.6
20260905121002 64 65 1.0 3.0 0.00 0.00 0.00 1012.6
20260905120524 64 64 2.0 4.0 0.00 0.00 0.00 1012.6
20260905120002 64 59 1.0 4.0 0.00 0.00 0.00 1012.2
20260905115503 64 64 2.0 4.0 0.00 0.00 0.00 1012.2
20260905115002 64 72 3.0 4.0 0.00 0.00 0.00 1012.2
20260905114524 64 58 2.0 4.0 0.00 0.00 0.00 1012.6
20260905114003 64 34 1.0 3.0 0.00 0.00 0.00 1012.6
20260905113503 64 14 1.0 3.0 0.00 0.00 0.00 1012.6
20260905113002 64 17 2.0 3.0 0.00 0.00 0.00 1011.9
20260905112524 64 39 2.0 3.0 0.00 0.00 0.00 1012.6
20260905112003 64 40 2.0 3.0 0.00 0.00 0.00 1012.2
20260905111502 64 27 2.0 4.0 0.00 0.00 0.00 1012.6
20260905111002 64 35 2.0 4.0 0.00 0.00 0.00 1012.6
20260905110502 64 41 2.0 3.0 0.00 0.00 0.00 1012.6
20260905110002 64 49 2.0 3.0 0.00 0.00 0.00 1012.6
20260905105502 65 41 1.0 2.0 0.00 0.00 0.00 1012.6
20260905105002 65 59 1.0 3.0 0.00 0.00 0.00 1012.6
20260905104502 65 60 2.0 3.0 0.00 0.00 0.00 1012.2
20260905104002 65 42 1.0 3.0 0.00 0.00 0.00 1012.6
20260905103502 65 87 2.0 3.0 0.00 0.00 0.00 1012.6
20260905103024 65 85 2.0 3.0 0.00 0.00 0.00 1012.2
20260905102502 65 87 2.0 3.0 0.00 0.00 0.00 1011.9
20260905102002 65 68 1.0 3.0 0.00 0.00 0.00 1011.9
20260905101524 65 91 1.0 3.0 0.00 0.00 0.00 1012.2
20260905101024 65 101 1.0 3.0 0.00 0.00 0.00 1012.6
20260905100503 65 94 2.0 3.0 0.00 0.00 0.00 1012.6
20260905100003 65 112 1.0 3.0 0.00 0.00 0.00 1012.6
20260905095502 65 113 1.0 3.0 0.00 0.00 0.00 1012.9
20260905095024 65 110 2.0 3.0 0.00 0.00 0.00 1012.6
20260905094502 66 86 2.0 3.0 0.00 0.00 0.00 1012.9
20260905094003 66 88 1.0 3.0 0.00 0.00 0.00 1012.9
20260905093503 66 92 2.0 3.0 0.00 0.00 0.00 1012.6
20260905093003 66 85 2.0 4.0 0.00 0.00 0.00 1012.6
20260905092524 66 87 2.0 4.0 0.00 0.00 0.00 1012.6
20260905092003 66 92 1.0 3.0 0.00 0.00 0.00 1012.6
20260905091524 66 91 2.0 3.0 0.00 0.00 0.00 1012.6
20260905091003 66 86 2.0 3.0 0.00 0.00 0.00 1012.2
20260905090502 66 87 1.0 3.0 0.00 0.00 0.00 1012.6
20260905090003 66 91 2.0 3.0 0.00 0.00 0.00 1012.6
20260905085502 66 92 2.0 3.0 0.00 0.00 0.00 1012.6
20260905085002 66 84 1.0 3.0 0.00 0.00 0.00 1012.6
20260905084525 67 85 2.0 3.0 0.00 0.00 0.00 1013.2
20260905084003 67 83 2.0 3.0 0.00 0.00 0.00 1012.9
20260905083502 67 76 2.0 3.0 0.00 0.00 0.00 1012.6
20260905083002 67 360 1.0 2.0 0.00 0.00 0.00 1012.9
20260905082502 67 360 1.0 2.0 0.00 0.00 0.00 1012.9
20260905082002 67 360 0.0 2.0 0.00 0.00 0.00 1013.2
20260905081502 67 360 0.0 1.0 0.00 0.00 0.00 1013.2
20260905081002 67 360 0.0 0.0 0.00 0.00 0.00 1013.2
20260905080502 67 360 0.0 0.0 0.00 0.00 0.00 1013.2
20260905080002 67 360 0.0 2.0 0.00 0.00 0.00 1013.2
20260905075502 67 360 0.0 2.0 0.00 0.00 0.00 1012.9
20260905075003 67 360 1.0 1.0 0.00 0.00 0.00 1013.2
20260905074502 67 360 1.0 1.0 0.00 0.00 0.00 1012.9
20260905074002 67 360 1.0 2.0 0.00 0.00 0.00 1013.2
20260905073502 67 68 1.0 2.0 0.00 0.00 0.00 1013.2
20260905073024 67 89 2.0 2.0 0.00 0.00 0.00 1013.2
20260905072524 67 90 0.0 1.0 0.00 0.00 0.00 1013.2
20260905072003 68 113 1.0 1.0 0.00 0.00 0.00 1012.9
20260905071502 68 124 1.0 1.0 0.00 0.00 0.00 1012.6
20260905071003 68 225 0.0 0.0 0.00 0.00 0.00 1013.2
20260905070503 68 315 0.0 0.0 0.00 0.00 0.00 1013.2
20260905070003 68 315 0.0 1.0 0.00 0.00 0.00 1012.9
20260905065503 68 289 0.0 2.0 0.00 0.00 0.00 1012.9
20260905065003 68 315 1.0 2.0 0.00 0.00 0.00 1012.9
20260905064502 68 293 0.0 2.0 0.00 0.00 0.00 1012.9
20260905064003 68 313 1.0 3.0 0.00 0.00 0.00 1012.6
20260905063503 69 291 2.0 3.0 0.00 0.00 0.00 1012.9
20260905063002 68 291 2.0 3.0 0.00 0.00 0.00 1012.9
20260905062503 69 258 1.0 2.0 0.00 0.00 0.00 1012.9
20260905062024 69 245 1.0 2.0 0.00 0.00 0.00 1012.6
20260905061503 69 248 0.0 0.0 0.00 0.00 0.00 1012.2
20260905061024 69 293 0.0 0.0 0.00 0.00 0.00 1012.6
20260905060502 69 293 0.0 1.0 0.00 0.00 0.00 1012.9
20260905060004 69 271 0.0 1.0 0.00 0.00 0.00 1012.6
20260905055502 69 270 0.0 2.0 0.00 0.00 0.00 1012.6
20260905055002 69 265 0.0 2.0 0.00 0.00 0.00 1012.6
20260905054503 69 249 1.0 2.0 0.00 0.00 0.00 1012.6
20260905054003 69 293 1.0 3.0 0.00 0.00 0.00 1012.2
20260905053502 69 273 1.0 3.0 0.00 0.00 0.00 1011.9
20260905053002 69 292 1.0 3.0 0.00 0.00 0.00 1011.9
20260905052523 69 282 1.0 4.0 0.00 0.00 0.00 1011.9
20260905052024 69 284 3.0 4.0 0.00 0.00 0.00 1011.9
20260905051502 69 288 2.0 5.0 0.00 0.00 0.00 1011.9
20260905051002 69 285 3.0 5.0 0.00 0.00 0.00 1012.2
20260905050502 69 294 2.0 5.0 0.00 0.00 0.00 1012.6
20260905050003 69 286 2.0 4.0 0.00 0.00 0.00 1012.2
20260905045502 69 298 2.0 4.0 0.00 0.00 0.00 1012.2
20260905045003 69 289 3.0 4.0 0.00 0.00 0.00 1011.5
20260905044504 69 283 2.0 3.0 0.00 0.00 0.00 1011.9
20260905044002 69 269 2.0 5.0 0.00 0.00 0.00 1011.9
20260905043502 69 266 3.0 5.0 0.00 0.00 0.00 1011.9
20260905043024 69 241 4.0 5.0 0.00 0.00 0.00 1011.9
20260905042524 70 272 3.0 5.0 0.00 0.00 0.00 1012.2
20260905042003 70 263 3.0 5.0 0.00 0.00 0.00 1012.2
20260905041503 70 251 2.0 5.0 0.00 0.00 0.00 1011.9
20260905041002 70 265 2.0 5.0 0.00 0.00 0.00 1011.9
20260905040502 70 251 3.0 5.0 0.00 0.00 0.00 1011.9
20260905040003 70 246 4.0 5.0 0.00 0.00 0.00 1011.5
20260905035524 70 264 3.0 5.0 0.00 0.00 0.00 1011.5
20260905035002 70 271 2.0 7.0 0.00 0.00 0.00 1011.5
20260905034502 70 293 2.0 7.0 0.00 0.00 0.00 1011.5
20260905034025 71 286 3.0 5.0 0.00 0.00 0.00 1011.2
20260905033502 71 266 1.0 2.0 0.00 0.00 0.00 1011.2
20260905033003 71 226 2.0 3.0 0.00 0.00 0.00 1011.2
20260905032503 71 146 2.0 3.0 0.00 0.00 0.00 1011.2
20260905032003 71 177 1.0 4.0 0.00 0.00 0.00 1011.2
20260905031523 71 170 2.0 4.0 0.00 0.00 0.00 1011.5
20260905031002 71 160 2.0 5.0 0.00 0.00 0.00 1011.2
20260905030504 71 177 3.0 5.0 0.00 0.00 0.00 1010.9
20260905030002 71 166 2.0 4.0 0.00 0.00 0.00 1010.9
20260905025503 71 183 3.0 5.0 0.00 0.00 0.00 1010.5
20260905025025 71 197 2.0 5.0 0.00 0.00 0.00 1010.5
20260905024502 71 198 2.0 6.0 0.00 0.00 0.00 1010.5
20260905024003 72 171 3.0 6.0 0.00 0.00 0.00 1010.5
20260905023502 71 200 2.0 7.0 0.00 0.00 0.00 1010.5
20260905023024 72 168 3.0 7.0 0.00 0.00 0.00 1010.5
20260905022502 72 180 4.0 7.0 0.00 0.00 0.00 1010.5
20260905022003 72 176 2.0 6.0 0.00 0.00 0.00 1010.5
20260905021503 73 175 2.0 5.0 0.00 0.00 0.00 1010.9
20260905021003 74 161 4.0 9.0 0.00 0.00 0.00 1010.9
20260905020502 74 176 4.0 9.0 0.00 0.00 0.00 1010.9
20260905020004 75 164 3.0 7.0 0.00 0.00 0.00 1010.5
20260905015504 75 159 4.0 7.0 0.00 0.00 0.00 1010.5
20260905015002 76 188 3.0 7.0 0.00 0.00 0.00 1010.9
20260905014503 76 191 3.0 7.0 0.00 0.00 0.00 1011.2
20260905014002 77 177 3.0 7.0 0.00 0.00 0.00 1010.9
20260905013503 77 222 4.0 6.0 0.00 0.00 0.00 1010.9
20260905013002 77 188 3.0 6.0 0.00 0.00 0.00 1010.9
20260905012503 77 196 3.0 6.0 0.00 0.00 0.00 1011.2
20260905012003 77 160 4.0 7.0 0.00 0.00 0.00 1011.5
20260905011503 77 221 3.0 7.0 0.00 0.00 0.00 1011.2
20260905011003 77 182 5.0 8.0 0.00 0.00 0.00 1011.5
20260905010502 77 171 3.0 8.0 0.00 0.00 0.00 1011.2
20260905010004 77 260 4.0 10.0 0.00 0.00 0.00 1010.5
20260905005503 77 225 4.0 10.0 0.00 0.00 0.00 1010.5
20260905005024 78 210 4.0 8.0 0.00 0.00 0.00 1011.2
20260905004503 77 237 4.0 9.0 0.00 0.00 0.00 1011.2
20260905004003 78 230 5.0 10.0 0.00 0.00 0.00 1011.2
20260905003503 78 204 4.0 12.0 0.00 0.00 0.00 1011.5
20260905003024 78 198 3.0 12.0 0.00 0.00 0.00 1011.5
20260905002525 78 202 6.0 10.0 0.00 0.00 0.00 1011.5
20260905002002 78 187 6.0 11.0 0.00 0.00 0.00 1011.5
20260905001503 77 222 5.0 11.0 0.00 0.00 0.00 1011.5
20260905001003 78 234 7.0 9.0 0.00 0.00 0.00 1011.5
20260905000502 78 207 3.0 10.0 0.00 0.00 0.00 1011.9
20260905000002 78 216 6.0 10.0 0.00 0.00 0.00 1010.5
20260904235502 78 223 5.0 10.0 0.00 0.00 0.00 1011.2
20260904235002 78 237 6.0 10.0 0.00 0.00 0.00 1010.9
20260904234502 79 224 6.0 10.0 0.00 0.00 0.00 1010.9
20260904234002 80 204 6.0 13.0 0.00 0.00 0.00 1010.9
20260904233502 80 171 7.0 13.0 0.00 0.00 0.00 1010.5
20260904233003 80 214 6.0 12.0 0.00 0.00 0.00 1011.2
20260904232523 80 204 4.0 12.0 0.00 0.00 0.00 1011.2
20260904232002 79 201 5.0 12.0 0.00 0.00 0.00 1011.2
20260904231503 79 199 7.0 12.0 0.00 0.00 0.00 1011.5
20260904231025 78 227 6.0 13.0 0.00 0.00 0.00 1011.5